{"data":{"norad_id":63238,"epoch":"2026-09-18T22:27:15.687072Z","epoch_age_seconds":149524,"freshness":"FRESH","line1":"1 63238U 25052AE  26261.93559823  .00011822  00000+0  35948-3 0  9992","line2":"2 63238  97.3793 157.0587 0006577 150.2751 209.8867 15.34170084 84387","mean_motion":15.34170084,"eccentricity":0.0006577,"inclination_deg":97.3793,"raan_deg":157.0587,"arg_perigee_deg":150.2751,"mean_anomaly_deg":209.8867,"bstar":0.00035948,"rev_number":8438,"period_min":93.86182242881,"perigee_km":458.88701422517,"apogee_km":467.88635447957,"semimajor_km":6841.5236843524,"source":"CELESTRAK","updated_at":"2026-09-20T09:00:45.265529Z"}}